Hourly Data Report for April 17, 2015

All times are specified in Local Standard Time (LST). Add 1 hour to adjust for Daylight Saving Time where and when it is observed.

Metadata including Station Name, Province, Latitude, Longitude, Elevation, Climate ID, WMO ID, TC ID
CHATHAM KENT
ONTARIO
Latitude: 42°18'21.000" N Longitude: 82°04'57.000" W Elevation: 196.60 m
Climate ID: 6131414 WMO ID: TC ID: YCK
Hourly Data Report for April 17, 2015
Temp Definition
°C

Dew Point Temp Definition
°C

Rel Hum Definition
%

Wind Dir Definition
10's deg
Wind Spd Definition
km/h

Visibility Definition
km

Stn Press Definition
kPa

Hmdx Definition

Wind Chill Definition

Weather Definition

00:00 Legend Double Dagger 8.9 8.5 97 21 15 6.4 99.39 Fog
01:00 Legend Double Dagger 10.6 10.2 97 24 13 6.4 99.38 Fog
02:00 Legend Double Dagger 10.5 10.1 97 25 8 2.8 99.35 Rain,Fog
03:00 Legend Double Dagger 10.3 9.9 97 24 4 1.6 99.32 Fog
04:00 Legend Double Dagger 10.1 9.8 98 30 8 1.6 99.34 Fog
05:00 Legend Double Dagger 7.3 7.0 98 22 9 0.4 99.32 Fog
06:00 Legend Double Dagger 6.9 6.6 98 22 9 0.2 99.43 Fog
07:00 Legend Double Dagger 8.7 8.4 98 LegendMM 4 2.4 99.46 Fog
08:00 Legend Double Dagger 11.6 11.3 98 33 13 4.8 99.48 Fog
09:00 Legend Double Dagger 13.6 10.2 80 33 18 16.1 99.48 LegendNANA
10:00 Legend Double Dagger 15.0 10.3 73 31 13 16.1 99.50 LegendNANA
11:00 Legend Double Dagger 16.0 10.9 71 35 8 16.1 99.53 LegendNANA
12:00 Legend Double Dagger 17.2 10.7 65 LegendMM 4 16.1 99.46 LegendNANA
13:00 Legend Double Dagger 18.8 10.1 56 27 8 16.1 99.42 LegendNANA
14:00 Legend Double Dagger 16.8 10.4 66 22 24 16.1 99.39 LegendNANA
15:00 Legend Double Dagger 17.1 10.4 65 21 24 16.1 99.37 LegendNANA
16:00 Legend Double Dagger 17.2 10.5 65 20 21 16.1 99.30 LegendNANA
17:00 Legend Double Dagger 15.9 9.8 67 19 17 16.1 99.29 LegendNANA
18:00 Legend Double Dagger 13.9 9.6 75 20 17 16.1 99.30 LegendNANA
19:00 Legend Double Dagger 10.9 8.8 87 17 13 12.9 99.30 LegendNANA
20:00                    
21:00                    
22:00                    
23:00                    

Notes on Data Quality.

Legend
  • E = Estimated
  • M = Missing
  • NA = Not Available
  • ‡ = Partner data that is not subject to review by the National Climate Archives